Theta_e
285 284 283 283 282 282 282 281 281 280 280 280 280 280 280 279 279 279 279 279 279 279 279 279 279 279 279 278 278 278 278 277 277 277 277 277 276 276 276 275 275 275
284 284 283 282 282 282 281 281 281 281 280 280 280 280 279 279 279 279 279 279 279 279 278 278 278 278 278 278 278 277 277 277 276 278 276 276 276 276 275 275 275 275
283 283 282 281 281 281 281 280 280 280 280 279 279 279 279 279 279 279 279 279 278 278 278 278 278 278 278 278 278 277 277 276 276 276 276 275 275 275 274 274 274 274
282 282 282 281 281 281 280 280 279 279 279 279 279 279 279 279 279 278 278 279 278 277 277 278 278 277 277 277 277 276 276 276 276 276 275 275 275 275 274 274 274 274
282 281 281 281 280 280 280 280 279 279 279 279 279 279 279 279 278 278 278 277 278 277 277 277 277 276 276 276 276 275 275 275 275 275 275 274 274 274 274 274 273 273
281 281 281 280 280 280 280 280 279 279 279 279 279 279 278 278 277 277 277 277 277 277 276 276 276 275 275 275 275 275 275 275 274 275 274 274 274 274 274 274 273 273
280 280 280 280 280 280 280 279 279 279 279 278 278 278 278 277 277 277 277 277 276 276 275 275 275 275 275 275 275 274 274 274 274 274 274 273 274 273 273 273 273 273
280 280 280 280 279 279 279 279 279 278 278 278 278 277 277 277 277 276 276 276 276 276 275 275 275 275 274 274 274 274 273 274 273 273 273 273 273 273 273 273 273 272
280 280 280 279 279 279 278 278 278 278 278 277 277 276 276 276 276 276 276 276 275 275 275 274 274 274 274 274 274 274 273 273 273 273 273 272 272 272 272 272 271 271
280 279 279 279 279 278 278 278 278 277 277 277 276 276 276 276 276 276 276 275 275 274 274 274 273 273 273 274 274 274 273 273 272 273 272 272 272 272 271 271 271 271
279 279 279 279 278 278 278 277 277 277 277 276 276 276 276 276 276 276 275 275 275 274 274 274 273 273 273 273 273 273 273 273 272 272 272 272 272 272 273 271 271 271
279 279 279 278 278 278 277 277 277 277 276 276 276 276 275 276 276 276 276 275 275 275 274 274 274 273 273 272 272 273 273 273 272 272 272 272 272 271 271 271 271 270
279 279 279 279 278 278 278 277 277 277 277 276 276 276 275 275 276 276 276 275 275 274 274 274 274 273 273 273 273 274 273 272 272 272 272 271 271 271 271 271 270 270
279 279 279 279 279 278 278 277 277 277 277 276 276 276 276 276 276 276 275 275 274 274 274 274 273 273 273 274 274 274 273 273 273 272 272 271 270 270 270 270 270 270
280 279 279 279 278 278 277 277 277 277 277 277 277 277 277 276 276 276 275 274 274 274 273 273 273 273 274 274 274 274 274 273 273 272 271 271 270 270 270 270 269 270
281 280 279 278 278 278 278 278 277 277 277 277 277 277 276 276 275 275 275 274 273 273 273 273 273 273 275 277 276 274 274 273 273 272 271 271 270 270 269 269 269 269
280 279 279 278 278 278 278 278 277 277 277 277 276 276 275 275 275 274 274 274 273 273 272 272 272 273 277 279 279 278 274 273 272 271 271 271 271 270 269 269 269 269
280 280 279 279 278 278 278 278 277 277 276 276 275 275 275 275 274 274 274 274 273 273 273 272 272 275 279 280 281 280 277 273 272 271 271 271 271 270 270 269 269 269
280 279 279 279 278 278 278 277 277 277 276 275 275 275 275 274 275 274 273 273 273 273 272 273 272 277 280 282 281 281 279 275 273 272 271 271 272 271 269 269 269 269
280 279 279 279 278 278 277 277 276 276 276 276 275 275 275 275 274 274 274 273 273 273 273 273 272 277 281 282 282 282 281 277 272 272 272 272 272 271 270 269 270 269
280 280 279 279 278 278 277 277 276 276 276 276 275 275 274 274 274 274 274 273 273 273 273 272 272 277 281 283 283 283 282 278 273 273 272 272 271 271 270 270 270 270
280 280 279 278 278 277 277 277 276 276 276 275 275 275 275 275 275 274 274 273 273 273 273 272 272 278 281 283 284 284 283 276 274 273 273 272 271 271 271 271 270 270
281 280 279 278 278 277 277 277 276 276 276 276 275 275 275 274 274 274 274 274 273 273 273 273 273 277 280 283 284 285 283 277 275 274 273 272 271 272 272 271 271 270
280 280 279 278 278 277 277 277 277 277 276 276 275 275 275 275 275 274 274 274 273 273 273 273 273 275 279 282 284 285 284 277 275 274 273 272 271 272 271 271 270 271
280 280 279 278 278 278 278 277 277 277 277 276 276 276 276 275 275 274 274 274 274 274 275 274 273 274 278 281 283 284 283 278 276 274 273 272 271 270 270 269 268 270
280 280 279 279 278 278 278 278 278 277 277 276 276 276 276 275 275 274 274 274 274 273 273 273 272 271 274 280 282 284 284 277 275 273 273 273 271 269 268 268 268 267
Wind_Speed
9 8 10 10 9 10 11 11 9 9 8 7 8 8 9 7 7 7 7 7 7 9 8 8 8 8 8 8 8 8 8 8 7 6 8 9 7 8 8 8 7 7
10 9 8 8 7 6 7 9 10 9 9 8 7 8 6 8 6 7 8 9 8 8 8 8 8 9 9 8 8 9 8 8 8 4 8 9 7 8 9 8 8 6
10 9 9 11 11 11 10 8 7 7 8 7 7 7 8 6 8 6 8 9 9 9 8 8 9 8 8 8 8 9 9 9 9 6 7 8 7 8 7 7 7 7
10 11 11 10 9 11 9 9 7 6 6 8 8 7 7 7 7 8 7 8 9 9 8 8 9 8 8 8 8 8 8 8 7 7 8 6 6 8 7 7 7 7
12 9 7 8 7 7 8 9 9 8 8 8 7 7 7 8 8 8 7 7 7 8 7 7 7 7 7 7 8 9 8 8 6 7 8 8 5 7 6 7 8 8
9 9 9 8 8 9 9 9 9 9 8 8 8 7 6 6 7 7 7 7 6 7 6 5 6 5 6 7 7 8 8 8 6 7 8 8 6 5 5 7 8 8
11 9 9 8 8 8 8 8 7 7 7 6 6 6 7 7 6 6 5 5 6 6 5 5 5 6 5 6 7 8 7 8 8 8 9 7 7 7 5 6 7 8
10 9 9 8 9 8 8 8 8 8 7 7 7 6 6 6 5 5 5 6 7 6 5 5 5 6 6 6 8 9 7 5 7 8 8 8 7 7 6 5 6 8
10 9 9 10 10 8 8 8 7 7 7 9 8 7 6 5 6 6 7 7 7 6 6 5 5 5 4 6 7 9 9 7 6 8 9 9 8 7 7 6 6 6
10 9 11 10 11 8 9 8 7 7 7 7 7 7 8 6 6 7 8 8 7 6 5 6 5 5 5 5 7 8 8 9 7 6 6 7 9 8 7 7 7 7
11 10 11 11 10 8 9 8 8 8 7 8 8 8 7 8 7 7 8 8 8 7 7 6 7 6 7 6 5 4 6 7 7 6 6 7 7 7 7 7 7 7
11 10 11 11 10 9 10 9 9 8 8 7 8 10 8 7 9 7 8 8 7 6 5 4 3 3 6 5 5 5 6 6 6 6 6 7 7 6 6 5 6 7
11 11 10 10 10 9 8 8 9 8 8 9 8 9 9 9 8 9 7 8 7 6 5 3 4 5 6 6 7 6 6 6 6 6 6 6 5 5 5 4 5 6
10 9 9 10 9 8 9 8 8 8 8 7 8 9 8 9 10 9 8 7 7 7 5 4 5 5 6 7 6 7 6 6 7 7 7 6 5 4 4 4 5 5
9 8 7 9 9 9 9 9 9 8 8 8 8 7 6 6 6 7 8 8 7 6 6 4 3 4 6 7 7 7 7 7 6 7 7 7 6 5 4 4 4 4
9 8 8 8 9 10 10 9 9 9 9 9 8 7 7 7 6 7 7 8 9 7 5 6 5 5 6 10 8 6 5 4 4 5 6 6 7 6 5 4 4 3
10 10 10 11 10 10 9 10 10 8 8 7 7 7 8 8 7 8 7 7 8 8 8 7 5 5 11 12 12 11 6 4 6 6 5 6 6 7 6 5 4 3
11 11 11 11 10 10 9 8 8 8 8 8 8 9 7 7 8 8 8 7 7 7 7 6 6 9 13 13 13 13 9 5 4 4 6 5 5 5 5 5 5 3
11 11 11 9 9 9 8 8 9 8 8 9 10 8 8 9 9 9 8 7 8 9 7 7 7 11 13 14 13 13 13 9 4 4 4 5 6 5 5 5 4 4
11 11 10 10 9 9 10 10 10 11 9 8 8 8 8 8 7 8 7 8 9 9 8 7 7 10 14 14 14 15 15 11 5 6 4 5 5 5 5 5 5 5
11 12 12 11 11 11 11 11 10 8 8 8 8 9 10 11 11 10 9 9 8 7 6 7 7 12 14 16 16 16 16 11 5 5 4 4 3 4 4 4 5 5
10 9 9 9 10 10 10 10 9 10 11 9 9 7 6 5 5 5 7 8 7 7 7 7 7 14 16 16 17 17 18 7 6 5 5 4 5 5 4 5 5 5
13 14 13 13 12 12 11 11 11 11 9 7 8 8 9 8 8 8 7 8 9 8 9 8 7 12 16 17 18 20 15 7 7 5 6 6 6 6 5 5 6 6
13 13 13 12 12 13 13 12 10 7 8 8 10 10 9 8 7 6 6 8 10 11 11 11 9 11 17 18 20 21 17 9 8 7 7 7 6 7 6 6 7 12
9 10 11 12 12 11 10 10 10 10 8 7 7 7 8 7 7 7 8 8 9 11 9 11 9 9 16 18 20 20 16 7 8 7 8 8 7 7 5 5 6 9
10 11 10 11 10 9 8 8 7 7 8 8 7 6 7 7 7 8 11 10 9 9 9 10 9 7 9 18 19 20 20 8 6 8 10 10 8 7 6 6 7 6
Wind_Direction
168 172 159 161 163 161 157 157 162 160 158 160 156 158 154 144 145 138 134 129 124 122 126 123 120 116 114 113 113 112 109 112 109 114 110 110 112 115 110 106 95 101
173 173 161 153 150 153 157 156 159 163 162 162 155 144 137 141 150 144 141 132 127 128 130 127 127 129 131 129 131 122 120 120 114 122 117 113 118 110 108 109 106 105
168 168 166 165 167 166 162 156 157 164 158 153 141 143 145 151 147 145 138 138 136 137 137 136 135 138 136 134 133 126 127 125 121 126 116 118 122 114 114 112 104 105
174 175 172 171 164 161 156 151 155 151 144 148 159 154 152 153 148 143 142 144 141 143 142 143 141 138 136 134 128 120 123 117 126 128 114 109 112 116 117 112 113 106
172 173 172 161 157 155 152 157 160 162 162 153 141 152 154 152 147 147 148 149 145 141 140 137 132 133 135 133 131 123 122 121 126 124 116 113 114 115 124 121 118 110
169 168 162 162 160 159 163 165 163 161 157 154 159 153 152 145 143 149 151 145 135 127 121 120 126 128 132 129 123 120 127 123 128 120 115 119 119 114 123 121 117 115
166 165 162 155 155 165 162 158 156 157 156 147 139 157 148 144 145 144 137 126 116 112 118 128 132 136 136 132 126 126 125 126 126 124 122 123 123 117 110 115 118 122
171 163 159 155 158 162 162 157 160 161 152 147 157 146 141 135 132 127 117 117 116 116 125 135 144 146 146 138 133 127 123 125 131 132 129 128 124 124 125 124 132 130
164 164 158 160 161 166 164 159 159 155 151 154 152 140 125 126 134 129 124 119 119 126 139 149 151 148 148 136 134 135 138 142 146 142 139 137 134 139 142 140 136 136
170 163 162 165 168 167 164 161 156 152 149 148 144 138 135 131 133 133 129 130 133 142 155 155 154 156 142 138 141 145 147 149 147 138 136 138 141 147 151 151 148 140
172 170 170 169 166 162 164 157 156 152 155 153 146 141 138 139 137 137 135 139 149 162 166 165 167 161 142 139 139 143 144 141 139 136 142 142 145 151 155 153 155 154
175 173 175 169 165 165 163 161 158 159 157 154 153 143 142 148 147 148 148 150 152 158 167 162 140 128 136 137 139 137 129 131 135 138 144 140 140 146 152 159 157 156
177 179 172 168 167 164 159 160 163 161 159 158 154 146 149 153 154 147 148 146 145 146 147 153 146 133 140 146 147 142 136 138 136 137 138 132 133 143 152 156 157 158
178 171 170 168 160 157 161 160 156 157 156 149 147 151 158 161 158 153 145 141 145 153 137 141 127 136 147 152 150 148 146 145 148 146 134 134 135 141 153 161 163 167
163 166 167 160 155 151 154 161 161 158 152 152 155 153 151 150 141 137 135 130 118 110 130 133 154 169 163 160 153 156 158 155 154 149 151 145 144 151 163 163 168 167
161 158 157 154 153 160 165 162 162 159 157 158 157 147 137 135 133 134 136 144 149 153 147 160 174 159 161 157 159 152 145 138 136 150 158 153 157 163 166 166 174 166
158 164 162 167 168 163 161 162 162 161 160 155 145 140 140 140 142 146 150 155 161 161 166 170 169 174 172 166 168 165 144 144 162 169 163 163 173 171 167 166 173 172
167 166 168 169 165 167 161 158 155 156 157 154 149 147 149 145 153 161 158 158 157 164 170 178 173 179 177 177 175 171 165 156 163 173 169 169 171 163 161 164 171 165
165 165 165 165 165 156 151 149 155 160 160 160 166 159 146 157 166 158 163 160 164 171 179 182 179 183 186 186 183 178 174 170 182 182 169 170 175 169 164 169 168 166
160 159 163 165 159 155 156 162 167 173 172 165 152 150 160 158 156 166 164 172 176 178 182 182 183 191 192 192 188 186 183 174 182 179 175 175 168 169 165 177 182 174
164 167 169 164 162 162 164 168 170 165 163 164 164 166 166 172 172 174 180 176 177 176 178 189 189 194 199 196 194 191 188 167 172 171 169 168 158 154 174 186 190 186
166 163 160 159 162 165 166 166 165 170 171 170 167 168 168 155 163 169 171 175 178 179 182 198 198 196 203 202 199 198 190 171 174 179 172 167 175 178 187 196 192 190
169 167 168 168 168 167 170 168 169 177 177 163 164 169 170 178 179 181 179 177 182 187 193 204 200 201 204 206 205 202 192 172 179 169 180 181 191 190 193 201 201 194
173 168 165 166 167 171 174 180 179 169 167 171 173 168 179 185 177 176 183 190 191 195 198 200 204 200 205 210 210 208 203 183 183 179 181 185 189 189 192 202 210 208
160 167 171 171 177 179 174 169 168 170 164 163 177 176 182 173 182 188 195 202 205 204 197 203 206 198 206 213 213 213 209 183 187 182 188 196 188 195 191 191 216 222
170 169 169 168 168 160 159 164 154 155 168 174 180 180 182 183 189 198 203 208 204 203 204 206 205 201 202 213 216 215 211 182 194 187 207 202 191 195 195 205 209 215